User: anonymous   Login
Location: Unspecified
(0.0000°N, 0.0000°E)
Time: 22:19:25
(UTC+00:00)
Language:

TBA - TO BE ASSIGNED - Orbit

View from above orbital plane
View from above orbital plane
View from above satellite
View from above satellite

Ground track
Ground track

The orbit is defined by the following mean orbital elements,

1 68854U          26145.58335647 +.00000000 +00000-0 +48302-3 0 00003
2 68854  97.2853 160.3556 0001230  89.7427 314.7058 15.49179389    00
Epoch (UTC): 25 May 2026 14:00:01
Eccentricity: 0.0001230
inclination: 97.2853°
perigee height: 418 km
apogee height: 420 km
right ascension of ascending node: 160.3556°
argument of perigee: 89.7427°
revolutions per day: 15.49179389
mean anomaly at epoch: 314.7058°

The dashed part of the orbit path shows where the satellite is in the earth's shadow,  

DLR